Location: Be?chatów
(51.3665°N, 19.3745°E)
Time: 16:29:04
(UTC+00:00)

Cosmos 2341 Rocket - Pass Details

Date: 19 May 2025
Orbit: 966 x 1004 km, 82.9° (Epoch: 20 June)

Event Time Altitude Azimuth Distance (km) Brightness Sun altitude
Rises 19:51:41 0° 350° (N) 3,699 8.2 -9.8°
Reaches altitude 10° 19:54:14 10° 352° (N) 2,742 7.4 -10.1°
Maximum altitude 20:00:31 80° 79° (E) 994 4.0 -10.7°
Enters shadow 20:06:24 12° 167° (SSE) 2,583 5.7 -11.2°
